Illinois River (Oklahoma), Tahlequah (07196500)

StateOklahomaLatestGood (647 cfs)
RiverIllinois RiverRatingObservedEstimated
Updated2020-08-06 9:30 (49 minutes ago)Flood - The river is flooding. Obstacles can be treacherous or deadly. The river should be avoided at this stage for casual trips and definitely for the inexperienced. Trips should be attempted only with protective gear and equipment.Flood(none)3296
Discharge647 cfs (median: 256 cfs)High - The river is high and potentially dangerous, especially for the young and / or inexperienced. Normal stream obstacles are sometimes difficult to navigate. Extended distances can be attempted, but canoe travel may not be advisable.High(none)1679
Height5.33 feetGood - Conditions are ideal for a canoe or kayak. Boats typically will drag on fewer than one-quarter of riffles, if at all, and portages are unnecessary or rare. Normal float lengths can be attempted without a problem.Good300901
TrendSteady (falling over 24 hours)Low - River is low but can still be floated. Some riffles are okay but most come with significant dragging and might need a portage. Float lengths should be reduced to accommodate low flow, dragging, and portages.Low(none)587
USGSExternal icon USGS Site (External icon Google Maps)Poor - River is too low to float comfortably. Most or all riffles will drag or must be portaged and some obstacles (such as slick shelf rock) cause undue problems. Avoid the river at this stage for casual paddling trips.Poor(none)229

Trending Data

Plot Image

Trips for Illinois River (Oklahoma), Tahlequah (07196500)

DateStartEndDistanceConditionDischargeHeightFishingDetails

A total of 0 rows are displayed.

Condition Descriptions

Fishing Conditions

Fish Species

Notes

Classic Trip List

The classic River Trips application is still available for use. It is updated with the new system using a data retrofit. It is no longer maintained. The original River Trips application is no longer updated (as of 1 Dec 2016) but can be checked for errors or for the condition of the data before it was converted to the new system.

Gauge Data Table

ObservationHeightDischargeMaximum
Discharge
Minimum
Discharge
Mean
Discharge
P05P10P20P25P50
(Median)
P75P80P90P95
2020-08-06 09:30 5.33 647 3450 (1992) 12 (1936) 361 52 86 124 148 256 374 430 602 1210
2020-08-06 08:30 5.33 647 3450 (1992) 12 (1936) 361 52 86 124 148 256 374 430 602 1210
2020-08-06 07:30 5.34 653 3450 (1992) 12 (1936) 361 52 86 124 148 256 374 430 602 1210
2020-08-06 06:30 5.34 653 3450 (1992) 12 (1936) 361 52 86 124 148 256 374 430 602 1210
2020-08-06 05:30 5.35 659 3450 (1992) 12 (1936) 361 52 86 124 148 256 374 430 602 1210
2020-08-06 04:30 5.34 653 3450 (1992) 12 (1936) 361 52 86 124 148 256 374 430 602 1210
2020-08-06 03:30 5.35 659 3450 (1992) 12 (1936) 361 52 86 124 148 256 374 430 602 1210
2020-08-06 02:30 5.35 659 3450 (1992) 12 (1936) 361 52 86 124 148 256 374 430 602 1210
2020-08-06 01:30 5.35 659 3450 (1992) 12 (1936) 361 52 86 124 148 256 374 430 602 1210
2020-08-06 00:30 5.35 659 3450 (1992) 12 (1936) 361 52 86 124 148 256 374 430 602 1210
2020-08-05 23:30 5.35 659 2750 (1992) 12 (1936) 359 55 88 128 139 237 351 381 637 1590
2020-08-05 22:30 5.35 659 2750 (1992) 12 (1936) 359 55 88 128 139 237 351 381 637 1590
2020-08-05 21:30 5.35 659 2750 (1992) 12 (1936) 359 55 88 128 139 237 351 381 637 1590
2020-08-05 20:30 5.35 659 2750 (1992) 12 (1936) 359 55 88 128 139 237 351 381 637 1590
2020-08-05 19:30 5.35 659 2750 (1992) 12 (1936) 359 55 88 128 139 237 351 381 637 1590
2020-08-05 18:30 5.35 659 2750 (1992) 12 (1936) 359 55 88 128 139 237 351 381 637 1590
2020-08-05 17:30 5.35 659 2750 (1992) 12 (1936) 359 55 88 128 139 237 351 381 637 1590
2020-08-05 16:30 5.36 664 2750 (1992) 12 (1936) 359 55 88 128 139 237 351 381 637 1590
2020-08-05 15:30 5.36 664 2750 (1992) 12 (1936) 359 55 88 128 139 237 351 381 637 1590
2020-08-05 14:30 5.36 664 2750 (1992) 12 (1936) 359 55 88 128 139 237 351 381 637 1590
2020-08-05 13:30 5.37 670 2750 (1992) 12 (1936) 359 55 88 128 139 237 351 381 637 1590
2020-08-05 12:30 5.37 670 2750 (1992) 12 (1936) 359 55 88 128 139 237 351 381 637 1590
2020-08-05 11:30 5.37 670 2750 (1992) 12 (1936) 359 55 88 128 139 237 351 381 637 1590
2020-08-05 10:30 5.38 676 2750 (1992) 12 (1936) 359 55 88 128 139 237 351 381 637 1590
2020-08-05 09:30 5.38 676 2750 (1992) 12 (1936) 359 55 88 128 139 237 351 381 637 1590
2020-08-05 08:30 5.38 676 2750 (1992) 12 (1936) 359 55 88 128 139 237 351 381 637 1590
2020-08-05 07:30 5.39 682 2750 (1992) 12 (1936) 359 55 88 128 139 237 351 381 637 1590
2020-08-05 06:30 5.39 682 2750 (1992) 12 (1936) 359 55 88 128 139 237 351 381 637 1590
2020-08-05 05:30 5.39 682 2750 (1992) 12 (1936) 359 55 88 128 139 237 351 381 637 1590
2020-08-05 04:30 5.39 682 2750 (1992) 12 (1936) 359 55 88 128 139 237 351 381 637 1590
2020-08-05 03:30 5.39 682 2750 (1992) 12 (1936) 359 55 88 128 139 237 351 381 637 1590
2020-08-05 02:30 5.40 688 2750 (1992) 12 (1936) 359 55 88 128 139 237 351 381 637 1590
2020-08-05 01:30 5.40 688 2750 (1992) 12 (1936) 359 55 88 128 139 237 351 381 637 1590
2020-08-04 23:30 5.40 688 2260 (1958) 14 (1936) 346 57 89 132 144 233 370 409 666 1180
2020-08-04 22:30 5.40 688 2260 (1958) 14 (1936) 346 57 89 132 144 233 370 409 666 1180
2020-08-04 21:30 5.41 694 2260 (1958) 14 (1936) 346 57 89 132 144 233 370 409 666 1180
2020-08-04 20:30 5.41 694 2260 (1958) 14 (1936) 346 57 89 132 144 233 370 409 666 1180
2020-08-04 19:30 5.41 694 2260 (1958) 14 (1936) 346 57 89 132 144 233 370 409 666 1180
2020-08-04 18:30 5.39 682 2260 (1958) 14 (1936) 346 57 89 132 144 233 370 409 666 1180
2020-08-04 17:30 5.40 688 2260 (1958) 14 (1936) 346 57 89 132 144 233 370 409 666 1180
2020-08-04 16:30 5.42 700 2260 (1958) 14 (1936) 346 57 89 132 144 233 370 409 666 1180
2020-08-04 15:30 5.38 676 2260 (1958) 14 (1936) 346 57 89 132 144 233 370 409 666 1180
2020-08-04 14:30 5.43 706 2260 (1958) 14 (1936) 346 57 89 132 144 233 370 409 666 1180
2020-08-04 13:30 5.44 712 2260 (1958) 14 (1936) 346 57 89 132 144 233 370 409 666 1180
2020-08-04 12:30 5.44 712 2260 (1958) 14 (1936) 346 57 89 132 144 233 370 409 666 1180
2020-08-04 11:30 5.45 718 2260 (1958) 14 (1936) 346 57 89 132 144 233 370 409 666 1180
2020-08-04 10:30 5.46 724 2260 (1958) 14 (1936) 346 57 89 132 144 233 370 409 666 1180
2020-08-04 09:30 5.45 718 2260 (1958) 14 (1936) 346 57 89 132 144 233 370 409 666 1180
2020-08-04 08:30 5.46 724 2260 (1958) 14 (1936) 346 57 89 132 144 233 370 409 666 1180
2020-08-04 07:30 5.47 730 2260 (1958) 14 (1936) 346 57 89 132 144 233 370 409 666 1180
2020-08-04 06:30 5.48 737 2260 (1958) 14 (1936) 346 57 89 132 144 233 370 409 666 1180
2020-08-04 05:30 5.48 737 2260 (1958) 14 (1936) 346 57 89 132 144 233 370 409 666 1180
2020-08-04 04:30 5.49 743 2260 (1958) 14 (1936) 346 57 89 132 144 233 370 409 666 1180
2020-08-04 03:30 5.49 743 2260 (1958) 14 (1936) 346 57 89 132 144 233 370 409 666 1180
2020-08-04 02:30 5.49 743 2260 (1958) 14 (1936) 346 57 89 132 144 233 370 409 666 1180
2020-08-04 01:30 5.49 743 2260 (1958) 14 (1936) 346 57 89 132 144 233 370 409 666 1180
2020-08-04 00:30 5.50 749 2260 (1958) 14 (1936) 346 57 89 132 144 233 370 409 666 1180
2020-08-03 23:30 5.50 749 4010 (1962) 14 (1936) 402 57 89 132 146 247 393 436 647 1430
2020-08-03 22:30 5.50 749 4010 (1962) 14 (1936) 402 57 89 132 146 247 393 436 647 1430
2020-08-03 21:30 5.51 756 4010 (1962) 14 (1936) 402 57 89 132 146 247 393 436 647 1430
2020-08-03 20:30 5.51 756 4010 (1962) 14 (1936) 402 57 89 132 146 247 393 436 647 1430
2020-08-03 19:30 5.52 762 4010 (1962) 14 (1936) 402 57 89 132 146 247 393 436 647 1430
2020-08-03 18:30 5.52 762 4010 (1962) 14 (1936) 402 57 89 132 146 247 393 436 647 1430
2020-08-03 17:30 5.53 768 4010 (1962) 14 (1936) 402 57 89 132 146 247 393 436 647 1430
2020-08-03 16:30 5.53 768 4010 (1962) 14 (1936) 402 57 89 132 146 247 393 436 647 1430
2020-08-03 15:30 5.53 768 4010 (1962) 14 (1936) 402 57 89 132 146 247 393 436 647 1430
2020-08-03 14:30 5.54 775 4010 (1962) 14 (1936) 402 57 89 132 146 247 393 436 647 1430
2020-08-03 13:30 5.55 781 4010 (1962) 14 (1936) 402 57 89 132 146 247 393 436 647 1430
2020-08-03 12:30 5.56 788 4010 (1962) 14 (1936) 402 57 89 132 146 247 393 436 647 1430
2020-08-03 11:30 5.56 788 4010 (1962) 14 (1936) 402 57 89 132 146 247 393 436 647 1430
2020-08-03 10:30 5.58 801 4010 (1962) 14 (1936) 402 57 89 132 146 247 393 436 647 1430
2020-08-03 09:30 5.58 801 4010 (1962) 14 (1936) 402 57 89 132 146 247 393 436 647 1430
2020-08-03 08:30 5.59 807 4010 (1962) 14 (1936) 402 57 89 132 146 247 393 436 647 1430
2020-08-03 07:30 5.60 814 4010 (1962) 14 (1936) 402 57 89 132 146 247 393 436 647 1430
2020-08-03 06:30 5.61 821 4010 (1962) 14 (1936) 402 57 89 132 146 247 393 436 647 1430
2020-08-03 05:30 5.61 821 4010 (1962) 14 (1936) 402 57 89 132 146 247 393 436 647 1430
2020-08-03 04:30 5.62 827 4010 (1962) 14 (1936) 402 57 89 132 146 247 393 436 647 1430
2020-08-03 03:30 5.62 827 4010 (1962) 14 (1936) 402 57 89 132 146 247 393 436 647 1430
2020-08-03 02:30 5.63 834 4010 (1962) 14 (1936) 402 57 89 132 146 247 393 436 647 1430
2020-08-03 00:30 5.64 841 4010 (1962) 14 (1936) 402 57 89 132 146 247 393 436 647 1430

A total of 80 rows are displayed for years 1936 through 2018.